Regional Weather Roundup
Issued by NWS

Home | Current Version | Previous Version | Text Only | Print | Product List | Glossary Off
Versions: 1 2 3 4 5 6 7 8 9 10 11 12 13 14 15 16 17 18 19 20 21 22 23 24 25 26 27 28 29 30 31 32 33 34 35 36 37 38 39 40 41 42 43 44 45 46 47 48 49 50

000
ASUS43 KLOT 032100
RWRIL

ILLINOIS REGIONAL WEATHER ROUNDUP
NATIONAL WEATHER SERVICE CHICAGO/ROMEOVILLE IL
400 PM CDT THU SEP 03 2015

NOTE: "FAIR" INDICATES FEW OR NO CLOUDS BELOW 12,000 FEET WITH NO
SIGNIFICANT WEATHER AND/OR OBSTRUCTIONS TO VISIBILITY.

* THESE STATIONS ARE NOT UNDER NWS QUALITY CONTROL. THEY ALSO MAY NOT
  REPORT WEATHER SUCH AS PRECIPITATION OR FOG.

ILZ001-002-007-009-015-016-024-032200-
NORTHWEST ILLINOIS

CITY           SKY/WX    TMP DP  RH WIND       PRES   REMARKS
MOLINE         SUNNY     91  69  48 SW10      29.88F HX  96
STERLING*      MOSUNNY   91  72  52 W7        29.87F HX  98
$$

ILZ003-004-008-010-011-017-018-032200-
NORTH CENTRAL ILLINOIS

CITY           SKY/WX    TMP DP  RH WIND       PRES   REMARKS
ROCKFORD       PTSUNNY   88  72  58 W7        29.91F HX  94
$$

ILZ005-006-012>014-019>023-032200-
NORTHEAST ILLINOIS

CITY           SKY/WX    TMP DP  RH WIND       PRES   REMARKS
CHICAGO-OHARE  MOSUNNY   90  68  48 W12       29.88F HX  94
CHICAGO-MIDWAY MOSUNNY   92  67  43 SW9G20    29.88F HX  95
AURORA         MOSUNNY   90  71  53 W12       29.91F HX  96
WAUKEGAN       MOSUNNY   87  71  58 SW6       29.87F HX  93
DUPAGE AIRPORT PTSUNNY   89  71  55 SW12      29.90F HX  95
WHEELING       MOSUNNY   90  69  50 W9G17     29.89F HX  94
NORTHERLY ISL    N/A     89  63  41 W10         N/A  HX  90
$$

LMZ740>746-032200-
SOUTHERN LAKE MICHIGAN

STATION/POSITION SKY/WX   TEMP    WIND        PRES    VSBY  WAVE
                          AIR SEA DIR/SP/G                  HT/PER
                          (F)     (DEG/KT/KT) (MB)    (MI)  (FT/S)
SOUTHERN BUOY              74 74  350/ 10/ 12 1011.5F         1
WILMETTE HARBOR            78 62  290/  2/  4   N/A           0
HARRISON CRIB              87     240/ 16/ 20   N/A
BURNHAM HARBOR             89     250/  6/ 12   N/A
CALUMET HARBOR             89     220/  6/ 13   N/A
MICHIGAN CITY              81     210/  5/  5   N/A
MICHIGAN CITY 6N           83 76  260/  4/  4   N/A           1
ST. JOSEPH                 77 74  260/  6/  6   N/A           1/ 3
$$

ILZ025>027-034>036-040-047-049-050-058-095>099-032200-
WEST-CENTRAL ILLINOIS

CITY           SKY/WX    TMP DP  RH WIND       PRES   REMARKS
QUINCY         SUNNY     92  63  38 SW9       29.92F HX  93
$$

ILZ028>032-037-038-041>044-048-051>054-059>061-032200-
CENTRAL ILLINOIS

CITY           SKY/WX    TMP DP  RH WIND       PRES   REMARKS
DECATUR        MOSUNNY   94  65  38 W7        29.93F HX  96
PEORIA         MOSUNNY   94  66  39 W10       29.91F HX  97
SPRINGFIELD    MOSUNNY   95  68  41 W10       29.92F HX  99
TAYLORVILLE    NOT AVBL
$$

ILZ033-039-045-046-055>057-062-063-032200-
EAST-CENTRAL ILLINOIS

CITY           SKY/WX    TMP DP  RH WIND       PRES   REMARKS
CHAMPAIGN      PTSUNNY   91  66  43 SW8       29.93F HX  93
MATTOON        SUNNY     91  62  37 W6        29.94F HX  91
$$

ILZ079-100>102-032200-
SOUTHWEST ILLINOIS

CITY           SKY/WX    TMP DP  RH WIND       PRES   REMARKS
ALTON          MOSUNNY   90  64  43 SW8       29.94F HX  91
BELLEVILLE     MOSUNNY   91  70  50 CALM      29.93F HX  96
CAHOKIA*       MOSUNNY   92  65  40 SW6       29.93F HX  94
$$

ILZ064>066-069>071-074>076-080>082-084>086-088>090-092>094-032200-
SOUTH-CENTRAL ILLINOIS

CITY           SKY/WX    TMP DP  RH WIND       PRES   REMARKS
CARBONDALE     SUNNY     89  67  47 W3        29.95F HX  92
MARION         MOSUNNY   91  68  46 SW7       29.96F HX  95
MT. VERNON     MOSUNNY   91  70  49 S7        29.96F HX  97
$$

ILZ067-068-072-073-078-083-087-091-032200-
SOUTHEAST ILLINOIS

CITY           SKY/WX    TMP DP  RH WIND       PRES   REMARKS
LAWRENCEVILLE  MOSUNNY   92  64  39 MISG      29.94F HX  93
$$

ABBREVIATIONS USED IN REMARKS
   TC - TEMPERATURE IN CELSIUS
  WCI - WIND CHILL INDEX
   HX - HEAT INDEX
  VSB - VISIBILITY
$$




USA.gov is the U.S. government's official web portal to all federal, state and local government web resources and services.